Location: Emerald Isle
(34.6779°N, 76.9508°W)
Time: 19:18:24
(UTC-04:00)

Envisat - Visible Passes

Search period start: 21 April 2018 00:00
Search period end: 01 May 2018 00:00
Orbit: 764 x 766 km, 98.2° (Epoch: 21 April)

Date Brightness Start Highest point End Pass type
(mag) Time Alt. Az. Time Alt. Az. Time Alt. Az.
21 Apr 3.4 20:04:58 10° SE 20:09:46 44° ENE 20:14:34 10° N visible
21 Apr 5.5 21:45:36 10° SW 21:48:55 17° W 21:52:16 10° NW visible
22 Apr 4.2 21:07:13 10° S 21:11:59 41° W 21:16:48 10° NNW visible
23 Apr 3.0 20:30:11 10° SSE 20:35:15 82° ENE 20:40:20 10° N visible
24 Apr 5.2 21:33:46 10° SSW 21:37:42 23° W 21:41:39 10° NW visible
25 Apr 3.7 20:55:53 10° S 21:00:49 54° W 21:05:48 10° NNW visible
26 Apr 3.1 20:19:07 10° SSE 20:24:07 63° ENE 20:29:08 10° N visible
26 Apr 5.8 22:01:39 10° WSW 22:03:30 12° W 22:05:21 10° WNW visible
27 Apr 4.8 21:22:07 10° SSW 21:26:29 29° W 21:30:53 10° NW visible
28 Apr 3.3 20:44:37 10° S 20:49:40 70° WSW 20:54:44 10° NNW visible
29 Apr 3.3 20:08:09 10° SSE 20:13:01 49° ENE 20:17:54 10° N visible
29 Apr 5.6 21:49:14 10° SW 21:52:15 16° W 21:55:16 10° NW visible
30 Apr 4.4 21:10:37 10° SSW 21:15:17 37° W 21:20:00 10° NNW visible
